Total_Precipitation_Accumulation
0.00 0.01 0.07 0.24 0.73 1.19 1.22 0.66 0.46 0.35 0.32 0.41 0.42 0.38 0.43 0.56 0.70 1.01 0.54 0.16 0.05 0.02 0.03 0.07 0.11 0.08 0.07 0.08 0.10 0.13 0.12 0.13 0.12 0.11 0.09 0.06 0.05 0.05 0.06 0.08 0.08 0.09 0.09 0.08 0.07 0.07 0.06 0.06 0.07
0.00 0.01 0.08 0.31 0.93 1.59 1.32 0.61 0.36 0.25 0.33 0.48 0.57 0.51 0.41 0.43 0.33 0.23 0.22 0.26 0.07 0.02 0.02 0.03 0.09 0.09 0.07 0.07 0.09 0.12 0.12 0.13 0.12 0.10 0.10 0.08 0.08 0.07 0.08 0.08 0.09 0.11 0.10 0.07 0.07 0.05 0.05 0.05 0.06
0.00 0.02 0.10 0.33 0.67 0.97 0.88 0.49 0.25 0.22 0.32 0.52 0.58 0.43 0.37 0.43 0.30 0.17 0.14 0.15 0.08 0.04 0.03 0.04 0.07 0.08 0.09 0.08 0.09 0.09 0.10 0.11 0.11 0.10 0.09 0.09 0.10 0.10 0.09 0.10 0.12 0.12 0.10 0.08 0.07 0.05 0.04 0.05 0.06
0.00 0.03 0.12 0.23 0.29 0.35 0.33 0.28 0.23 0.23 0.34 0.40 0.49 0.45 0.32 0.34 0.28 0.19 0.15 0.12 0.08 0.06 0.05 0.07 0.09 0.09 0.09 0.08 0.08 0.08 0.09 0.09 0.10 0.10 0.10 0.10 0.10 0.10 0.11 0.11 0.12 0.13 0.10 0.08 0.06 0.05 0.04 0.05 0.07
0.00 0.02 0.10 0.16 0.18 0.22 0.23 0.25 0.26 0.31 0.38 0.49 0.59 0.61 0.52 0.31 0.25 0.29 0.32 0.24 0.17 0.14 0.12 0.11 0.14 0.14 0.12 0.10 0.10 0.09 0.09 0.09 0.10 0.11 0.10 0.09 0.10 0.12 0.12 0.11 0.11 0.13 0.11 0.09 0.06 0.05 0.06 0.07 0.08
0.00 0.02 0.05 0.08 0.10 0.14 0.22 0.23 0.26 0.34 0.46 0.66 0.67 0.60 0.55 0.41 0.36 0.37 0.35 0.41 0.43 0.29 0.21 0.16 0.18 0.19 0.17 0.15 0.14 0.13 0.12 0.12 0.12 0.11 0.11 0.10 0.12 0.12 0.12 0.10 0.11 0.14 0.15 0.11 0.08 0.06 0.07 0.09 0.10
0.01 0.02 0.03 0.03 0.06 0.10 0.14 0.22 0.32 0.35 0.48 0.64 0.54 0.51 0.63 0.64 0.57 0.49 0.41 0.46 0.40 0.35 0.34 0.28 0.20 0.19 0.20 0.22 0.23 0.21 0.17 0.17 0.16 0.13 0.12 0.11 0.13 0.14 0.14 0.14 0.15 0.16 0.17 0.16 0.13 0.10 0.10 0.11 0.12
0.00 0.01 0.01 0.01 0.03 0.07 0.08 0.14 0.24 0.31 0.46 0.48 0.48 0.63 0.93 0.80 0.53 0.50 0.51 0.51 0.48 0.48 0.44 0.43 0.37 0.32 0.25 0.24 0.27 0.28 0.26 0.24 0.21 0.18 0.16 0.16 0.18 0.20 0.21 0.20 0.22 0.23 0.24 0.23 0.24 0.21 0.19 0.19 0.20
0.00 0.01 0.01 0.01 0.01 0.03 0.07 0.14 0.21 0.29 0.39 0.49 0.62 0.70 0.75 0.61 0.47 0.57 0.68 0.70 0.75 0.67 0.52 0.45 0.46 0.43 0.36 0.27 0.25 0.29 0.30 0.29 0.27 0.28 0.27 0.29 0.40 0.51 0.56 0.54 0.57 0.55 0.52 0.49 0.45 0.45 0.43 0.37 0.28
0.00 0.00 0.01 0.00 0.01 0.02 0.06 0.15 0.28 0.35 0.46 0.70 1.04 1.09 0.76 0.66 0.62 0.70 0.89 0.90 1.08 0.90 0.63 0.56 0.46 0.43 0.38 0.30 0.37 0.42 0.43 0.46 0.43 0.54 0.60 0.72 0.87 0.85 0.70 0.89 0.99 0.96 1.00 0.91 0.87 1.02 0.87 0.65 0.57
0.00 0.00 0.00 0.00 0.01 0.02 0.06 0.13 0.19 0.32 0.66 1.10 1.24 1.10 0.85 0.92 0.94 0.91 1.12 1.12 1.03 0.94 0.97 0.91 0.72 0.60 0.55 0.60 0.53 0.54 0.63 0.78 0.75 0.77 0.92 1.16 1.08 0.90 0.80 0.93 1.23 1.38 1.47 1.41 1.49 1.57 1.18 1.13 1.29
0.00 0.00 0.00 0.01 0.01 0.02 0.03 0.06 0.12 0.34 0.81 0.97 0.94 0.89 0.86 1.04 1.05 1.12 1.37 1.40 1.44 1.28 1.46 1.56 1.22 1.08 0.92 0.87 0.80 0.72 0.73 0.90 1.05 1.22 1.28 1.45 1.48 1.33 1.17 1.21 1.41 1.59 1.73 2.04 2.03 1.90 1.74 1.69 1.60
0.00 0.00 0.00 0.00 0.01 0.05 0.03 0.07 0.23 0.51 0.73 0.64 0.53 0.77 0.84 1.09 1.33 1.54 1.66 1.54 1.81 1.86 1.99 2.22 1.76 1.52 1.40 1.40 1.32 1.11 1.13 1.21 1.32 1.54 1.66 1.76 1.93 1.88 1.79 1.71 1.66 1.55 1.72 2.05 2.24 2.13 2.12 2.05 1.93
0.00 0.00 0.00 0.01 0.02 0.04 0.07 0.15 0.34 0.58 0.53 0.49 0.63 1.03 1.23 1.16 1.45 1.83 1.90 1.89 2.16 2.31 2.42 2.54 2.39 2.26 2.03 1.87 1.84 1.75 1.49 1.49 1.49 1.60 1.63 1.82 2.05 2.28 2.36 2.24 2.09 1.78 1.74 1.84 2.15 2.25 2.38 2.27 2.13
0.00 0.01 0.04 0.06 0.06 0.06 0.09 0.33 0.48 0.57 0.45 0.52 0.75 1.05 1.36 1.30 1.46 1.73 1.90 2.27 2.78 3.06 2.95 2.93 2.88 3.01 2.76 2.42 2.15 1.91 1.78 1.78 1.84 1.87 1.81 1.97 2.21 2.42 2.42 2.20 1.87 1.67 1.75 1.83 1.77 1.82 2.13 1.91 1.76
0.01 0.04 0.14 0.16 0.11 0.09 0.15 0.55 0.67 0.61 0.72 0.82 1.00 1.09 1.29 1.36 1.43 1.64 2.04 2.67 3.37 3.78 3.56 3.36 3.01 3.15 3.12 2.87 2.62 2.30 2.08 2.12 2.01 1.86 1.78 1.85 2.06 2.07 2.11 1.76 1.39 1.46 1.67 1.74 1.72 1.67 1.76 1.74 1.78
0.03 0.07 0.14 0.21 0.15 0.12 0.21 0.75 0.77 0.56 0.79 1.04 0.98 1.05 1.20 1.42 1.53 1.64 2.12 2.79 3.41 4.03 4.11 4.03 3.90 3.56 3.40 3.23 3.01 2.74 2.49 2.19 1.88 1.79 1.72 1.60 1.52 1.53 1.63 1.36 1.24 1.34 1.47 1.50 1.47 1.63 1.74 1.63 1.68
0.06 0.09 0.14 0.22 0.16 0.15 0.27 0.59 0.67 0.68 0.81 0.96 0.95 0.97 1.07 1.32 1.64 1.72 2.06 2.62 3.26 3.89 4.34 4.47 4.39 3.94 3.49 3.08 2.72 2.56 2.33 2.11 1.89 1.73 1.55 1.33 1.22 1.22 1.39 1.28 1.16 1.28 1.36 1.34 1.49 1.61 1.68 1.46 1.42
0.06 0.09 0.18 0.23 0.16 0.17 0.32 0.50 0.63 0.72 0.93 1.05 1.02 0.99 1.03 1.32 1.67 1.85 2.12 2.42 3.02 3.57 4.11 4.22 4.22 3.59 2.93 2.53 2.23 2.08 1.85 1.63 1.59 1.51 1.37 1.29 1.19 1.15 1.30 1.20 1.10 1.09 1.12 1.10 1.24 1.35 1.35 1.12 1.32
0.09 0.12 0.20 0.22 0.14 0.16 0.33 0.59 0.77 0.83 0.79 0.84 0.82 0.87 0.93 1.30 1.70 2.09 2.58 2.84 2.77 3.12 3.67 3.67 3.20 2.75 2.31 1.97 1.78 1.64 1.53 1.35 1.22 1.08 1.02 0.95 0.94 0.98 1.04 1.02 0.91 0.89 0.93 0.90 0.98 1.11 1.10 0.97 1.22
0.12 0.14 0.18 0.16 0.14 0.21 0.39 0.73 1.00 0.93 0.67 0.60 0.62 0.65 0.80 1.13 1.54 1.94 2.37 2.67 2.58 2.78 2.81 2.40 2.07 1.83 1.60 1.44 1.35 1.32 1.22 1.04 0.84 0.70 0.65 0.66 0.69 0.70 0.69 0.69 0.72 0.78 0.76 0.79 0.85 1.00 1.10 0.98 1.00
0.08 0.08 0.07 0.07 0.12 0.28 0.42 0.92 1.26 1.07 0.78 0.62 0.58 0.66 0.73 0.80 0.99 1.28 1.50 1.84 2.04 2.01 1.88 1.74 1.56 1.37 1.27 1.26 1.17 1.14 0.93 0.79 0.67 0.54 0.55 0.57 0.55 0.53 0.50 0.52 0.62 0.69 0.72 0.79 0.71 0.75 0.92 0.98 0.89
0.05 0.04 0.05 0.08 0.12 0.27 0.47 0.78 1.13 1.12 1.02 0.84 0.67 0.65 0.58 0.53 0.61 0.75 0.85 1.01 1.22 1.33 1.33 1.25 1.35 1.37 1.25 1.16 1.08 1.05 0.89 0.73 0.59 0.55 0.60 0.59 0.55 0.51 0.45 0.45 0.48 0.57 0.64 0.71 0.71 0.73 0.77 0.83 0.82
0.04 0.05 0.12 0.25 0.37 0.68 0.67 0.69 0.99 0.95 0.88 0.84 0.64 0.49 0.39 0.35 0.43 0.53 0.54 0.58 0.68 0.78 0.86 0.93 1.04 1.15 1.10 1.02 0.97 0.94 0.85 0.74 0.60 0.54 0.54 0.50 0.48 0.47 0.45 0.45 0.47 0.48 0.50 0.53 0.59 0.64 0.68 0.74 0.76
0.05 0.09 0.32 0.69 0.99 1.13 0.69 0.64 0.82 0.70 0.72 0.74 0.53 0.31 0.25 0.27 0.30 0.37 0.39 0.40 0.46 0.50 0.58 0.65 0.74 0.84 0.86 0.85 0.85 0.84 0.81 0.71 0.59 0.48 0.44 0.41 0.36 0.38 0.42 0.44 0.50 0.54 0.54 0.53 0.55 0.59 0.66 0.72 0.77
0.06 0.07 0.19 0.34 0.48 0.66 0.68 1.02 0.94 0.54 0.53 0.43 0.24 0.14 0.14 0.22 0.21 0.22 0.23 0.27 0.33 0.31 0.38 0.45 0.47 0.53 0.58 0.68 0.76 0.68 0.64 0.53 0.46 0.51 0.47 0.39 0.32 0.35 0.42 0.48 0.50 0.52 0.57 0.58 0.65 0.67 0.72 0.78 0.80
0.05 0.05 0.06 0.09 0.15 0.40 0.74 1.04 0.76 0.39 0.36 0.23 0.13 0.07 0.07 0.09 0.12 0.12 0.12 0.14 0.19 0.21 0.24 0.29 0.38 0.44 0.44 0.48 0.57 0.58 0.52 0.45 0.45 0.48 0.45 0.37 0.34 0.30 0.34 0.40 0.50 0.51 0.54 0.60 0.69 0.73 0.78 0.84 0.88
0.06 0.06 0.06 0.07 0.14 0.29 0.58 0.89 0.86 0.58 0.42 0.23 0.12 0.07 0.06 0.05 0.06 0.07 0.07 0.09 0.14 0.17 0.21 0.28 0.35 0.38 0.38 0.37 0.36 0.36 0.42 0.45 0.49 0.49 0.41 0.36 0.33 0.30 0.32 0.33 0.40 0.42 0.46 0.55 0.68 0.75 0.82 0.94 1.00
0.08 0.08 0.09 0.10 0.12 0.20 0.43 0.62 0.51 0.47 0.33 0.20 0.14 0.13 0.07 0.04 0.04 0.04 0.04 0.07 0.12 0.15 0.20 0.25 0.30 0.34 0.33 0.32 0.33 0.38 0.42 0.44 0.48 0.60 0.56 0.41 0.35 0.31 0.29 0.27 0.28 0.28 0.32 0.40 0.57 0.75 0.87 0.98 1.02
0.09 0.10 0.11 0.14 0.16 0.16 0.24 0.39 0.32 0.29 0.22 0.20 0.14 0.13 0.07 0.04 0.04 0.04 0.05 0.06 0.10 0.17 0.19 0.22 0.29 0.31 0.34 0.35 0.34 0.37 0.43 0.43 0.42 0.46 0.49 0.42 0.35 0.32 0.28 0.27 0.25 0.21 0.23 0.33 0.49 0.65 0.80 0.95 1.06